Location: Burland Observatory
(39.4088°N, 105.4217°W)
Time: 09:04:54
(UTC-07:00)

Vanguard 3 - Pass Details

Date: 08 December 2019
Orbit: 507 x 3263 km, 33.4° (Epoch: 25 January)

Event Time Altitude Azimuth Distance (km) Brightness Sun altitude
Rises 16:37:07 0° 274° (W) 6,897 13.0 -0.7°
Reaches altitude 10° 16:44:58 10° 255° (WSW) 6,136 13.4 -2.0°
Maximum altitude 16:53:45 15° 228° (SW) 5,760 13.0 -3.5°
Drops below altitude 10° 17:02:27 10° 200° (SSW) 5,973 12.3 -5.0°
Sets 17:10:05 0° 180° (S) 6,601 12.1 -6.4°
